Main page
METAR-TAF:

METAR-TAF

Airports :

Madison Municipal Airport

Madison, South Dakota, United States

latitude: 44-00-59N, longitude: 097-05-08W, elevation: 1719 ft

Current weather observation

The report was made 40 minutes ago, at 06:55 UTC
Wind 7 mph from the East/Southeast
Temperature 55°F
Humidity 100%
Pressure 30.05 in. Hg
Visibility: 10 miles
Broken clouds at a height of 10000 ft

METAR: KMDS 180655Z AUTO 12006KT 10SM BKN100 13/13 A3005 RMK AO2

Time: 01:35 (07:35 UTC)


TAF: missing

Weather observations and forecasts of more than 4000 airports (METAR and TAF reports).

The available stations are represented by yellow and red dots on the map.

Hover mouse over dot to see the name of the station.

Then click to see weather observations and forecasts.

To change the map : click on the green buttons with a black cross to zoom in, on the green button with a dash to zoom out, or on the green arrows for adjacent maps.


METAR-TAF: